Location: ?????
(55.6500°N, 37.2500°E)
Time: 10:21:18
(UTC+00:00)

CZ-2D R/B - Pass Details

Date: 19 May 2025
Orbit: 790 x 841 km, 98.8° (Epoch: 12 June)

Event Time Altitude Azimuth Distance (km) Brightness Sun altitude
Rises 23:45:53 0° 18° (NNE) 3,403 7.2 -8.9°
Reaches altitude 10° 23:48:18 10° 22° (NNE) 2,469 6.2 -8.7°
Maximum altitude 23:53:42 58° 102° (ESE) 982 2.7 -8.3°
Drops below altitude 10° 23:59:05 10° 181° (S) 2,456 4.1 -7.8°
Enters shadow 00:00:23 - 184° (S) 2,960 4.5 -7.7°
